• Join FlightAware (Why Join?)
  • Login
  • US Flag 
06:51PM EDT


 

Airport Tracker/Info


-or-


 

Live Flight TrackerFlight Track Log ✈ GPD20 ✈ 29-Aug-2013 ✈ KMVY - KOXC

Flight Track Log - Related Links

Times and Time Zones

All times are in EDT time to prevent confusion due to time zone crossing. See the GPD20 flight status page for this flight to view local times or setup timezone preferences in your user account.

Time Position Orientation Groundspeed Altitude Reporting Facility
EDT Latitude Longitude Course Direction KTS MPH feet Rate Location/Type
08:37PM 41.4389 -70.7122 258° West 152 175 4,500  Level Boston Center
08:38PM 41.4314 -70.7733 261° West 156 180 5,100 420 Climbing Boston Center
08:39PM 41.3685 -70.9517 261° West  Level FlightAware Approximate
08:39PM 41.4219 -70.8317 258° West 157 181 5,500  Level Boston Center
08:40PM 41.3667 -71.0103 270° West  Level FlightAware Approximate
08:40PM 41.4144 -70.8900 260° West 154 177 6,000  Level Boston Center
08:41PM 41.3667 -71.0692 270° West  Level FlightAware Approximate
08:41PM 41.4089 -70.9483 263° West 195 224 6,000  Level Boston Center
08:42PM 41.3972 -71.0067 255° West 160 184 6,000  Level Boston Center
08:43PM 41.3853 -71.0622 254° West 167 192 6,000  Level Boston Center
08:44PM 41.3778 -71.1206 260° West 161 185 6,000  Level Boston Center
08:45PM 41.3681 -71.1789 257° West 162 186 6,000  Level Boston Center
08:46PM 41.3583 -71.2397 258° West 163 188 6,000  Level Boston Center
08:47PM 41.3506 -71.3008 260° West 164 189 6,000  Level Boston Center
08:48PM 41.3367 -71.3675 255° West 165 190 6,000  Level Boston Center
08:49PM 41.3308 -71.4117 260° West 165 190 6,000  Level Boston Center
08:50PM 41.3208 -71.4756 258° West 167 192 6,000  Level Boston Center
08:51PM 41.3131 -71.5364 260° West 164 189 6,000  Level Boston Center
08:52PM 41.2989 -71.5975 253° West 165 190 6,000  Level Boston Center
08:53PM 41.2911 -71.6611 261° West 169 194 6,000  Level Boston Center
08:54PM 41.2831 -71.7136 258° West 169 194 6,000  Level Boston Center
08:55PM 41.2711 -71.7828 257° West 154 177 6,000  Level Boston Center
08:56PM 41.2631 -71.8408 260° West 164 189 6,000  Level Boston Center
08:57PM 41.2508 -71.9072 256° West 166 191 6,000  Level Boston Center
08:58PM 41.2406 -71.9625 256° West 172 198 6,000 240 Level Boston Center
09:00PM 41.2167 -72.0667 253° West 158 182 6,700 420 Climbing New York TRACON
09:01PM 41.2167 -72.1167 270° West 159 183 7,200 60 Climbing New York TRACON
09:02PM 41.2000 -72.1833 252° West 178 205 6,900 -420 Descending New York TRACON
09:03PM 41.2000 -72.2500 270° West 183 211 6,400 -480 Descending New York TRACON
09:04PM 41.1833 -72.3167 252° West 179 206 5,900 -540 Descending New York TRACON
09:05PM 41.1500 -72.3667 228° Southwest 192 221 5,400 -600 Descending New York TRACON
09:06PM 41.1167 -72.4167 229° Southwest 195 224 4,800 -780 Descending New York TRACON
09:07PM 41.0833 -72.4667 229° Southwest 192 221 4,000 -420 Descending New York TRACON
09:08PM 41.0500 -72.5167 229° Southwest 178 205 4,000  Level New York TRACON
09:09PM 41.0167 -72.5667 229° Southwest 175 201 4,000 -60 Level New York TRACON
09:10PM 41.0000 -72.6167 246° West 180 207 3,900  Descending New York TRACON
09:11PM 41.0333 -72.6667 311° West 156 180 4,000  Climbing New York TRACON
09:12PM 41.0667 -72.7000 323° Northwest 159 183 4,000  Level New York TRACON
09:13PM 41.1000 -72.7333 323° Northwest 158 182 4,000  Level New York TRACON
09:14PM 41.1333 -72.7667 323° Northwest 162 186 4,000  Level New York TRACON
09:15PM 41.1833 -72.8000 333° Northwest 157 181 4,000  Level New York TRACON
09:16PM 41.2167 -72.8333 323° Northwest 160 184 4,000  Level New York TRACON
09:17PM 41.2333 -72.8667 304° West 157 181 4,000  Level New York TRACON
09:18PM 41.2667 -72.9000 323° Northwest 157 181 4,000  Level New York TRACON
09:19PM 41.2833 -72.9667 288° West 167 192 4,000  Level New York TRACON
09:20PM 41.3000 -73.0333 288° West 166 191 4,000  Level New York TRACON
09:21PM 41.2833 -73.0833 246° West 172 198 4,000  Level New York TRACON
09:22PM 41.2667 -73.1500 252° West 170 196 4,000 -60 Level New York TRACON
09:23PM 41.2833 -73.1833 304° West 173 199 3,900 -300 Descending New York TRACON
09:24PM 41.3167 -73.1333 48° Northeast 169 194 3,500 -480 Descending New York TRACON
09:25PM 41.3500 -73.1167 21° North 173 199 3,000 -660 Descending New York TRACON
09:26PM 41.4000 -73.1167 360° North 145 167 2,200 -720 Descending New York TRACON
09:27PM 41.4333 -73.1333 339° North 136 157 1,600 -660 Descending New York TRACON